Date String (YYYY-MM-DD hh:mm:ss) UTC,Instrument flags,Ambient pressure (hPa),Sample flow (lpm),Bypass flow (lpm),Sample temperature (°C),Ambient temperature (°C),ASC tube jacket temperature (°C),LED temperature (°C),Box temperature (°C),Sample RH (%),Span deviation,Mass concentration (μg/m³),Mass concentration (μg/m³),Mass concentration (μg/m³)
DateTimeUTC,F1_M11,P_M11,Q1_M11,Q2_M11,T1_M11,T2_M11,T3_M11,T4_M11,T5_M11,U1_M11,ZSPAN_M11,X0_M11,X2_M11,X1_M11
2022-07-20 11:00:00,,0829.5,4.99,0.00,29.8,28.6,00.0,38.5,31.7,24.3,0000.0,0019.90,0008.04,0006.09
2022-07-20 11:01:00,,0829.6,5.01,0.00,29.8,28.7,00.0,38.5,31.7,24.3,0000.0,0021.37,0008.05,0006.10
2022-07-20 11:02:00,,0829.6,5.00,0.00,29.8,28.7,00.0,38.5,31.8,24.3,0000.0,0020.86,0008.01,0006.10
2022-07-20 11:03:00,,0829.5,5.01,0.00,29.8,28.8,00.0,38.6,31.8,24.3,0000.0,0020.71,0007.93,0006.10
2022-07-20 11:04:00,,0829.5,4.98,0.00,29.9,28.7,00.0,38.5,31.8,24.2,0000.0,0021.13,0007.96,0006.10
2022-07-20 11:05:00,,0829.5,5.00,0.00,29.9,27.9,00.0,38.5,31.7,24.2,0000.0,0021.40,0008.07,0006.11
2022-07-20 11:06:00,,0829.6,5.00,0.00,29.8,27.5,00.0,38.4,31.7,24.3,0000.0,0022.38,0008.08,0006.10
2022-07-20 11:07:00,,0829.6,4.99,0.00,29.8,27.5,00.0,38.5,31.5,24.4,0000.0,0022.75,0008.06,0006.11
2022-07-20 11:08:00,,0829.6,4.99,0.00,29.7,27.5,00.0,38.5,31.4,24.4,0000.0,0021.89,0008.03,0006.10
2022-07-20 11:09:00,,0829.6,5.00,0.00,29.7,27.6,00.0,38.4,31.4,24.5,0000.0,0021.72,0007.96,0006.09
2022-07-20 11:10:00,,0829.8,5.00,0.00,29.7,27.8,00.0,38.4,31.4,24.6,0000.0,0021.51,0007.90,0006.10
2022-07-20 11:11:00,,0829.6,5.00,0.00,29.6,27.9,00.0,38.4,31.5,24.6,0000.0,0021.83,0007.92,0006.11
2022-07-20 11:12:00,,0829.9,5.01,0.00,29.6,28.0,00.0,38.4,31.5,24.6,0000.0,0021.55,0007.94,0006.09
2022-07-20 11:13:00,,0829.7,4.99,0.00,29.7,28.2,00.0,38.5,31.5,24.5,0000.0,0022.19,0007.91,0006.08
2022-07-20 11:14:00,,0829.8,5.01,0.00,29.7,28.3,00.0,38.5,31.6,24.5,0000.0,0023.33,0007.94,0006.09
2022-07-20 11:15:00,,0829.6,4.99,0.00,29.7,28.4,00.0,38.5,31.6,24.5,0000.0,0023.50,0007.96,0006.10
2022-07-20 11:16:00,,0829.6,5.02,0.00,29.7,28.4,00.0,38.5,31.6,24.5,0000.0,0023.46,0007.99,0006.15
2022-07-20 11:17:00,,0829.6,5.00,0.00,29.7,28.5,00.0,38.5,31.7,24.4,0000.0,0024.27,0008.00,0006.20
2022-07-20 11:18:00,,0829.6,4.99,0.00,29.8,28.6,00.0,38.5,31.7,24.4,0000.0,0023.52,0007.99,0006.24
2022-07-20 11:19:00,,0829.7,5.01,0.00,29.8,28.7,00.0,38.5,31.7,24.4,0000.0,0024.09,0008.04,0006.27
2022-07-20 11:20:00,,0829.7,4.99,0.00,29.8,28.7,00.0,38.5,31.8,24.3,0000.0,0025.09,0008.09,0006.31
2022-07-20 11:21:00,,0829.7,4.99,0.00,29.8,28.8,00.0,38.6,31.8,24.2,0000.0,0024.62,0008.16,0006.35
2022-07-20 11:22:00,,0829.7,5.00,0.00,29.9,28.8,00.0,38.6,31.8,24.2,0000.0,0024.38,0008.17,0006.38
2022-07-20 11:23:00,,0829.7,5.00,0.00,29.9,28.5,00.0,38.5,31.8,24.1,0000.0,0023.57,0008.19,0006.43
2022-07-20 11:24:00,,0829.7,4.99,0.00,29.9,27.7,00.0,38.5,31.7,24.2,0000.0,0022.59,0008.30,0006.49
2022-07-20 11:25:00,,0829.7,5.01,0.00,29.8,27.4,00.0,38.5,31.6,24.1,0000.0,0021.85,0008.39,0006.54
2022-07-20 11:26:00,,0829.7,5.00,0.00,29.7,27.4,00.0,38.5,31.5,24.2,0000.0,0021.02,0008.44,0006.58
2022-07-20 11:27:00,,0829.7,5.00,0.00,29.7,27.5,00.0,38.5,31.4,24.2,0000.0,0021.66,0008.40,0006.56
2022-07-20 11:28:00,,0829.7,5.00,0.00,29.7,27.6,00.0,38.5,31.4,24.1,0000.0,0021.08,0008.33,0006.55
2022-07-20 11:29:00,,0829.8,5.00,0.00,29.6,27.8,00.0,38.5,31.4,24.1,0000.0,0020.65,0008.34,0006.55
2022-07-20 11:30:00,,0829.8,4.99,0.00,29.6,27.9,00.0,38.4,31.5,24.2,0000.0,0020.02,0008.34,0006.57
2022-07-20 11:31:00,,0829.8,5.01,0.00,29.7,28.1,00.0,38.5,31.5,24.2,0000.0,0019.22,0008.36,0006.56
2022-07-20 11:32:00,,0829.8,5.00,0.00,29.7,28.2,00.0,38.5,31.6,24.2,0000.0,0018.81,0008.33,0006.56
2022-07-20 11:33:00,,0829.8,5.00,0.00,29.7,28.3,00.0,38.5,31.6,24.2,0000.0,0019.03,0008.34,0006.56
2022-07-20 11:34:00,,0829.8,4.99,0.00,29.7,28.4,00.0,38.5,31.6,24.2,0000.0,0018.80,0008.29,0006.54
2022-07-20 11:35:00,,0829.8,5.01,0.00,29.7,28.5,00.0,38.5,31.7,24.0,0000.0,0018.91,0008.19,0006.53
2022-07-20 11:36:00,,0829.8,4.99,0.00,29.7,28.5,00.0,38.5,31.7,23.9,0000.0,0019.28,0008.18,0006.52
2022-07-20 11:37:00,,0829.8,5.01,0.00,29.8,28.6,00.0,38.5,31.7,22.9,0000.0,0019.59,0008.12,0006.51
2022-07-20 11:38:00,,0829.8,4.99,0.00,29.8,28.6,00.0,38.5,31.8,23.1,0000.0,0019.20,0008.07,0006.53
2022-07-20 11:39:00,,0829.8,5.01,0.00,29.8,28.7,00.0,38.5,31.7,23.2,0000.0,0017.83,0008.10,0006.54
2022-07-20 11:40:00,,0829.8,5.00,0.00,29.8,28.8,00.0,38.6,31.8,22.9,0000.0,0017.35,0008.13,0006.55
2022-07-20 11:41:00,,0829.8,4.99,0.00,29.9,28.8,00.0,38.6,31.8,23.0,0000.0,0017.07,0008.06,0006.54
2022-07-20 11:42:00,,0829.8,5.00,0.00,29.9,28.6,00.0,38.6,31.9,23.4,0000.0,0017.32,0008.05,0006.55
2022-07-20 11:43:00,,0829.9,5.00,0.00,29.9,27.9,00.0,38.5,31.7,23.2,0000.0,0018.66,0008.03,0006.57
2022-07-20 11:44:00,,0829.9,5.00,0.00,29.8,27.5,00.0,38.5,31.6,23.2,0000.0,0018.57,0008.07,0006.58
2022-07-20 11:45:00,,0829.9,4.99,0.00,29.8,27.5,00.0,38.5,31.5,23.3,0000.0,0018.84,0008.13,0006.61
2022-07-20 11:46:00,,0829.9,5.00,0.00,29.7,27.5,00.0,38.5,31.5,23.2,0000.0,0018.64,0008.17,0006.61
2022-07-20 11:47:00,,0829.9,5.00,0.00,29.7,27.6,00.0,38.5,31.5,23.5,0000.0,0018.15,0008.08,0006.57
2022-07-20 11:48:00,,0829.8,5.00,0.00,29.6,27.8,00.0,38.5,31.5,23.1,0000.0,0017.96,0008.06,0006.55
2022-07-20 11:49:00,,0829.8,5.01,0.00,29.6,27.9,00.0,38.5,31.5,23.3,0000.0,0017.19,0008.02,0006.52
2022-07-20 11:50:00,,0829.9,5.00,0.00,29.6,28.0,00.0,38.5,31.5,23.2,0000.0,0017.31,0008.06,0006.50
2022-07-20 11:51:00,,0829.8,4.99,0.00,29.7,28.1,00.0,38.5,31.5,23.2,0000.0,0018.38,0008.02,0006.48
2022-07-20 11:52:00,,0829.8,5.01,0.00,29.7,28.2,00.0,38.5,31.6,23.0,0000.0,0019.00,0008.04,0006.47
2022-07-20 11:53:00,,0829.9,4.99,0.00,29.7,28.3,00.0,38.5,31.6,23.0,0000.0,0018.96,0008.07,0006.45
2022-07-20 11:54:00,,0829.9,5.01,0.00,29.7,28.4,00.0,38.5,31.6,22.9,0000.0,0017.57,0008.08,0006.42
2022-07-20 11:55:00,,0830.0,5.01,0.00,29.7,28.5,00.0,38.5,31.7,23.1,0000.0,0017.45,0007.99,0006.41
2022-07-20 11:56:00,,0829.8,5.00,0.00,29.7,28.6,00.0,38.5,31.7,23.0,0000.0,0017.56,0007.93,0006.39
2022-07-20 11:57:00,,0829.9,5.00,0.00,29.8,28.6,00.0,38.5,31.7,23.0,0000.0,0017.37,0007.88,0006.39
2022-07-20 11:58:00,,0829.9,4.99,0.00,29.8,28.7,00.0,38.5,31.8,22.9,0000.0,0018.00,0007.92,0006.42
2022-07-20 11:59:00,,0829.9,5.00,0.00,29.8,28.7,00.0,38.6,31.8,22.9,0000.0,0017.53,0007.95,0006.42
